STARLINK-1558, 46035

Orbit data source: Space-Track

STARLINK-1558, 46035 is a payload satellite owned by SpaceX/Seattle (US) in LEO that was launched on Fri, 07 Aug 2020 UTC via an FALCON 9 launch vehicle from the Air Force Eastern Test Range (AFETR). Payload-class satellites include a variety of spacecraft equipped with specific instruments for various scientific and technological missions. These include communications satellites like Starlink; space stations such as the ISS; scientific satellites like the Hubble; Earth observation satellites from companies like Planet Labs, Umbra, and HawkEye 360; GPS; miniature CubeSats for education and research; and military/defense satellites.

Loading next visibility...
Identifier
46035, 2020-055J
Orbit
LEO
Country
Flag of USUS
Related business
Manufacturer
SpaceX/Seattle
Mission
Operational Commercial Communications
Bus & Motor
STARLINK, Unknown motor
Mass
260 kg wet, ~248 kg dry
Launch date (UTC)
2020-08-07 (6 years ago)
Launch vehicle
FALCON 9
Launch site
Air Force Eastern Test Range (AFETR)
Object type
Payload
Rocket body
Debris
Shape & HBR
Box + 1 Pan, 10.1 m
Radar Cross Section
13.562 m², Large (>1 m²)

Expand to show TLE details & history
Last TLE update: 16 hours ago

TLE from 16 hours ago
0 STARLINK-1558
1 46035U 20055J   26263.37650126  .00006375  00000-0  21721-3 0  9996
2 46035  53.1603 301.5195 0001502  66.1554 293.9605 15.31670243338715
Epoch: 2026-09-20T09:02Z
TLE epoch observation values (Epoch: 2026-09-20T09:02:09.708Z)
Latitude
-0.00002°
Longitude
166.70747°
Altitude
471.311 km
Speed
7.632 km/s
True Right ascension
20h 06m 04s
True Declination
0° 00' 00"
Sunlit
Object was in full shadow at epoch
Visualization orbit readout
Latitude
Unknown
Longitude
Unknown
Altitude
Unknown
Speed
Unknown
Apparent Right ascension
Unknown
Apparent Declination
Unknown
Sunlit
N/A
Visualization observer readout
Local Sidereal Time
18:30:08
Azimuth
Unknown
Elevation
Unknown
Doppler factor
Unknown
Orbital elements
Apogee altitude
472.114 km
Perigee altitude
470.056 km
Semi-major axis
6,849.222 km
Eccentricity
0.00015
Inclination
53.1603°
RAAN
301.5195°
Arg. of periapsis
66.1554°
True anomaly
293.94477°
Mean anomaly
293.9605°
Eccentric anomaly
293.95264°
Mean motion
3.82896 °/min
Orbital period
94.02 mins
BSTAR
0.00021721
Loading maneuver chart data...
Computing Atmospheric mass density...

Documentation

Showing up to 5 results
|